Location: Frankfurt+am+Main
(50.1100°N, 8.4815°E)
Time: 04:31:16
(UTC+01:00)

ISS - Pass Details

Date: 08 January 2018
Orbit: 401 x 406 km, 51.6° (Epoch: 17 January)

Event Time Altitude Azimuth Distance (km) Brightness Sun altitude
Exits shadow 06:40:33 39° 291° (WNW) 628 -3.4 -15.7°
Maximum altitude 06:41:39 80° 13° (NNE) 418 -3.9 -15.5°
Drops below altitude 10° 06:44:56 10° 100° (E) 1,466 0.4 -15.0°
Sets 06:47:02 0° 102° (ESE) 2,326 1.9 -14.7°
